User: anonymous   Login
Location: Bednik
(45.3500°N, 16.3833°E)
Time: 02:49:16
(UTC+00:00)
Language:

Cosmos 2034 Rocket - Orbit

View from above orbital plane
View from above orbital plane
View from above satellite
View from above satellite

Ground track
Ground track

The orbit data is extracted from the following two-line orbital elements,

1 20150U 89059B   20302.44713581 -.00000020 +00000-0 -36430-4 0  9993
2 20150 082.9384 262.1518 0030402 089.7859 024.5242 13.75639685569185
Epoch (UTC): 28 October 2020 10:43:52
Eccentricity: 0.0030402
inclination: 82.9384°
perigee height: 957 km
apogee height: 1002 km
right ascension of ascending node: 262.1518°
argument of perigee: 89.7859°
revolutions per day: 13.75639685
mean anomaly at epoch: 24.5242°
orbit number at epoch: 56918

The dashed part of the orbit path shows where the satellite is in the earth's shadow,  

DLR